This demonstration page uses our WeatherBlox Daily Observations layout. Learn more.

Left ArrowRight Arrow

Hourly Observations for January 1, 2017

Temp ( °F °C ) Dew Point ( °F °C ) Humidity (%) Winds ( mph kmh ) Pressure ( in mb ) Visibility ( mi km ) Precip ( " mm )
12:52 am 00:52 Clear 33 0.6 23 -5 66 66 NE 7 11 29.96 1015 10 16 0.00 0.00
1:52 am 01:52 Clear 31 -0.6 22 -5.6 69 69 Calm 29.98 1015 10 16 0.00 0.00
2:52 am 02:52 Clear 31 -0.6 22 -5.6 69 69 Calm 29.97 1015 10 16 0.00 0.00
3:52 am 03:52 Clear 30 -1.1 22 -5.6 72 72 NNE 5 7 29.96 1015 10 16 0.00 0.00
4:52 am 04:52 Clear 28 -2.2 22 -5.6 78 78 NNE 3 6 29.97 1015 10 16 0.00 0.00
5:52 am 05:52 Clear 29 -1.7 23 -5 78 78 ENE 6 9 29.96 1015 10 16 0.00 0.00
6:52 am 06:52 Clear 29 -1.7 22 -5.6 75 75 E 5 7 29.98 1015 10 16 0.00 0.00
7:52 am 07:52 Sunny 27 -2.8 22 -5.6 81 81 S 5 7 30.00 1016 10 16 0.00 0.00
8:52 am 08:52 Sunny 34 1.1 26 -3.3 73 73 SE 8 13 29.99 1016 10 16 0.00 0.00
9:52 am 09:52 Partly Cloudy 41 5 30 -1.1 65 65 SE 9 15 30.02 1017 10 16 0.00 0.00
10:52 am 10:52 Mostly Sunny 45 7.2 32 0 61 61 SE 12 19 29.99 1016 10 16 0.00 0.00
11:52 am 11:52 Partly Cloudy 48 8.9 34 1.1 58 58 SE 10 17 29.98 1015 10 16 0.00 0.00
12:52 pm 12:52 Mostly Cloudy 49 9.4 33 0.6 55 55 SE 10 17 29.93 1014 10 16 0.00 0.00
1:52 pm 13:52 Cloudy 47 8.3 35 1.7 63 63 SE 12 19 29.93 1014 10 16 0.00 0.00
2:52 pm 14:52 Cloudy 47 8.3 37 2.8 69 69 SE 10 17 29.92 1013 10 16 0.00 0.00
3:52 pm 15:52 Cloudy 47 8.3 38 3.3 71 71 ESE 13 20 29.91 1013 10 16 0.00 0.00
4:52 pm 16:52 Cloudy 43 6.1 37 2.8 80 80 SE 10 17 29.93 1014 10 16 0.00 0.00
5:07 pm 17:07 Cloudy 43 6.1 37 2.8 80 80 SE 14 22 29.94 1014 10 16 0.00 0.00
5:52 pm 17:52 Clear 43 6 27 -3 53 53 N 6 9 29.88 1012 10 16 0.00 0.00
6:00 pm 18:00 Cloudy 43 6 37 3 81 81 SE 17 28 29.94 1014 10 16 0.00 0.00
6:52 pm 18:52 Cloudy 42 5.6 38 3.3 85 85 SE 14 22 29.92 1013 10 16 0.00 0.00
7:52 pm 19:52 Cloudy 42 5.6 39 3.9 89 89 SE 14 22 29.91 1013 9 14 0.00 0.00
8:52 pm 20:52 Cloudy with Mist and Fog 42 5.6 40 4.4 92 92 SSE 12 19 29.91 1013 5 8 0.00 0.00
9:06 pm 21:06 Cloudy with Mist and Fog 43 6 39 4 87 87 SE 15 24 29.91 1013 4 6 0.00 0.00
9:52 pm 21:52 Cloudy with Mist and Fog 43 6.1 41 5 93 93 SSE 15 24 29.91 1013 3 5 0.00 0.00
10:52 pm 22:52 Cloudy with Mist and Fog 43 6.1 41 5 93 93 SSE 14 22 29.92 1013 5 8 0.00 0.00
11:48 pm 23:48 Cloudy 43 6 41 5 93 93 SSE 15 24 29.94 1014 7 11 0.00 0.00
11:52 pm 23:52 Cloudy 43 6.1 41 5 93 93 SSE 17 28 29.91 1013 7 11 0.00 0.00

Powered by AerisWeather